Year,Month,Day,Hour,Minute,Value (Times are PST for temperature in C)
2012,06,25,00,03,10.60
2012,06,25,00,04,10.60
2012,06,25,00,05,10.60
2012,06,25,00,06,10.60
2012,06,25,00,08,10.60
2012,06,25,00,09,10.60
2012,06,25,00,10,10.50
2012,06,25,00,11,10.50
2012,06,25,00,13,10.50
2012,06,25,00,14,10.50
2012,06,25,00,15,10.40
2012,06,25,00,16,10.40
2012,06,25,00,17,10.40
2012,06,25,00,18,10.40
2012,06,25,00,19,10.40
2012,06,25,00,20,10.40
2012,06,25,00,21,10.40
2012,06,25,00,22,10.40
2012,06,25,00,23,10.40
2012,06,25,00,24,10.40
2012,06,25,00,25,10.40
2012,06,25,00,26,10.40
2012,06,25,00,27,10.40
2012,06,25,00,28,10.30
2012,06,25,00,29,10.30
2012,06,25,00,30,10.30
2012,06,25,00,31,10.30
2012,06,25,00,32,10.30
2012,06,25,00,33,10.30
2012,06,25,00,35,10.30
2012,06,25,00,36,10.30
2012,06,25,00,37,10.30
2012,06,25,00,38,10.30
2012,06,25,00,39,10.20
2012,06,25,00,40,10.20
2012,06,25,00,41,10.20
2012,06,25,00,42,10.20
2012,06,25,00,43,10.20
2012,06,25,00,44,10.20
2012,06,25,00,45,10.20
2012,06,25,00,46,10.20
2012,06,25,00,47,10.20
2012,06,25,00,48,10.20
2012,06,25,00,49,10.20
2012,06,25,00,50,10.20
2012,06,25,00,51,10.20
2012,06,25,00,52,10.20
2012,06,25,00,53,10.20
2012,06,25,00,54,10.20
2012,06,25,00,55,10.10
2012,06,25,00,56,10.10
2012,06,25,00,58,10.10
2012,06,25,00,59,10.10
2012,06,25,01,04,10.10
2012,06,25,01,05,10.10
2012,06,25,01,06,10.10
2012,06,25,01,07,10.10
2012,06,25,01,10,10.00
2012,06,25,01,11,9.90
2012,06,25,01,13,9.90
2012,06,25,01,14,9.90
2012,06,25,01,16,9.90
2012,06,25,01,19,9.90
2012,06,25,01,20,9.90
2012,06,25,01,22,9.90
2012,06,25,01,24,9.80
2012,06,25,01,25,9.80
2012,06,25,01,27,9.80
2012,06,25,01,29,9.80
2012,06,25,01,30,9.80
2012,06,25,01,31,9.80
2012,06,25,01,32,9.80
2012,06,25,01,33,9.80
2012,06,25,01,34,9.80
2012,06,25,01,35,9.80
2012,06,25,01,36,9.80
2012,06,25,01,37,9.80
2012,06,25,01,38,9.80
2012,06,25,01,39,9.80
2012,06,25,01,40,9.80
2012,06,25,01,41,9.80
2012,06,25,01,42,9.80
2012,06,25,01,43,9.80
2012,06,25,01,44,9.80
2012,06,25,01,46,9.80
2012,06,25,01,47,9.80
2012,06,25,01,48,9.70
2012,06,25,01,49,9.70
2012,06,25,01,50,9.70
2012,06,25,01,51,9.70
2012,06,25,01,52,9.70
2012,06,25,01,53,9.70
2012,06,25,01,54,9.70
2012,06,25,01,55,9.70
2012,06,25,01,56,9.70
2012,06,25,01,57,9.70
2012,06,25,01,58,9.70
2012,06,25,01,59,9.70
2012,06,25,02,01,9.70
2012,06,25,02,02,9.70
2012,06,25,02,03,9.70
2012,06,25,02,04,9.70
2012,06,25,02,05,9.70
2012,06,25,02,06,9.70
2012,06,25,02,07,9.70
2012,06,25,02,08,9.70
2012,06,25,02,09,9.70
2012,06,25,02,10,9.70
2012,06,25,02,11,9.70
2012,06,25,02,12,9.70
2012,06,25,02,13,9.60
2012,06,25,02,14,9.60
2012,06,25,02,15,9.60
2012,06,25,02,16,9.60
2012,06,25,02,17,9.60
2012,06,25,02,18,9.60
2012,06,25,02,19,9.60
2012,06,25,02,20,9.60
2012,06,25,02,21,9.60
2012,06,25,02,22,9.60
2012,06,25,02,23,9.60
2012,06,25,02,24,9.60
2012,06,25,02,26,9.60
2012,06,25,02,27,9.60
2012,06,25,02,28,9.60
2012,06,25,02,29,9.60
2012,06,25,02,31,9.70
2012,06,25,02,32,9.70
2012,06,25,02,33,9.70
2012,06,25,02,34,9.60
2012,06,25,02,36,9.60
2012,06,25,02,37,9.60
2012,06,25,02,38,9.60
2012,06,25,02,40,9.60
2012,06,25,02,41,9.60
2012,06,25,02,42,9.60
2012,06,25,02,43,9.60
2012,06,25,02,44,9.60
2012,06,25,02,46,9.60
2012,06,25,02,47,9.70
2012,06,25,02,48,9.60
2012,06,25,02,50,9.70
2012,06,25,02,51,9.70
2012,06,25,02,52,9.70
2012,06,25,02,53,9.70
2012,06,25,02,54,9.70
2012,06,25,02,56,9.70
2012,06,25,02,57,9.70
2012,06,25,02,58,9.70
2012,06,25,02,59,9.70
2012,06,25,03,01,9.70
2012,06,25,03,02,9.70
2012,06,25,03,03,9.70
2012,06,25,03,05,9.70
2012,06,25,03,06,9.70
2012,06,25,03,07,9.70
2012,06,25,03,08,9.70
2012,06,25,03,10,9.70
2012,06,25,03,11,9.60
2012,06,25,03,12,9.70
2012,06,25,03,14,9.60
2012,06,25,03,15,9.70
2012,06,25,03,16,9.60
2012,06,25,03,17,9.70
2012,06,25,03,19,9.70
2012,06,25,03,20,9.70
2012,06,25,03,21,9.70
2012,06,25,03,22,9.70
2012,06,25,03,24,9.70
2012,06,25,03,25,9.60
2012,06,25,03,26,9.60
2012,06,25,03,28,9.60
2012,06,25,03,29,9.60
2012,06,25,03,30,9.60
2012,06,25,03,31,9.60
2012,06,25,03,32,9.60
2012,06,25,03,34,9.70
2012,06,25,03,35,9.70
2012,06,25,03,36,9.70
2012,06,25,03,37,9.70
2012,06,25,03,39,9.70
2012,06,25,03,40,9.70
2012,06,25,03,41,9.70
2012,06,25,03,43,9.70
2012,06,25,03,44,9.70
2012,06,25,03,45,9.70
2012,06,25,03,46,9.70
2012,06,25,03,47,9.70
2012,06,25,03,48,9.70
2012,06,25,03,49,9.70
2012,06,25,03,50,9.70
2012,06,25,03,51,9.60
2012,06,25,03,52,9.70
2012,06,25,03,54,9.70
2012,06,25,03,55,9.70
2012,06,25,03,56,9.70
2012,06,25,03,57,9.70
2012,06,25,03,58,9.70
2012,06,25,04,00,9.70
2012,06,25,04,01,9.70
2012,06,25,04,02,9.70
2012,06,25,04,03,9.70
2012,06,25,04,04,9.70
2012,06,25,04,06,9.70
2012,06,25,04,07,9.70
2012,06,25,04,08,9.70
2012,06,25,04,09,9.70
2012,06,25,04,11,9.60
2012,06,25,04,12,9.60
2012,06,25,04,13,9.60
2012,06,25,04,14,9.60
2012,06,25,04,16,9.60
2012,06,25,04,17,9.60
2012,06,25,04,18,9.60
2012,06,25,04,19,9.60
2012,06,25,04,20,9.60
2012,06,25,04,22,9.60
2012,06,25,04,23,9.60
2012,06,25,04,24,9.60
2012,06,25,04,25,9.50
2012,06,25,04,26,9.50
2012,06,25,04,27,9.50
2012,06,25,04,28,9.50
2012,06,25,04,29,9.50
2012,06,25,04,30,9.50
2012,06,25,04,31,9.50
2012,06,25,04,33,9.50
2012,06,25,04,34,9.50
2012,06,25,04,35,9.50
2012,06,25,04,36,9.40
2012,06,25,04,38,9.40
2012,06,25,04,39,9.40
2012,06,25,04,40,9.40
2012,06,25,04,41,9.40
2012,06,25,04,43,9.30
2012,06,25,04,44,9.30
2012,06,25,04,45,9.30
2012,06,25,04,46,9.30
2012,06,25,04,48,9.30
2012,06,25,04,49,9.30
2012,06,25,04,50,9.20
2012,06,25,04,51,9.20
2012,06,25,04,53,9.20
2012,06,25,04,54,9.20
2012,06,25,04,55,9.20
2012,06,25,04,56,9.20
2012,06,25,04,58,9.20
2012,06,25,04,59,9.30
2012,06,25,05,00,9.30
2012,06,25,05,01,9.30
2012,06,25,05,02,9.30
2012,06,25,05,04,9.30
2012,06,25,05,05,9.30
2012,06,25,05,06,9.30
2012,06,25,05,07,9.30
2012,06,25,05,08,9.30
2012,06,25,05,09,9.30
2012,06,25,05,10,9.30
2012,06,25,05,11,9.30
2012,06,25,05,12,9.30
2012,06,25,05,14,9.20
2012,06,25,05,15,9.20
2012,06,25,05,16,9.20
2012,06,25,05,17,9.20
2012,06,25,05,19,9.20
2012,06,25,05,20,9.20
2012,06,25,05,21,9.10
2012,06,25,05,22,9.10
2012,06,25,05,24,9.10
2012,06,25,05,25,9.00
2012,06,25,05,26,9.00
2012,06,25,05,28,9.00
2012,06,25,05,29,8.90
2012,06,25,05,30,8.90
2012,06,25,05,32,8.90
2012,06,25,05,33,8.90
2012,06,25,05,34,8.90
2012,06,25,05,35,8.90
2012,06,25,05,36,8.90
2012,06,25,05,37,8.90
2012,06,25,05,38,8.80
2012,06,25,05,39,8.80
2012,06,25,05,40,8.80
2012,06,25,05,41,8.80
2012,06,25,05,43,8.80
2012,06,25,05,44,8.80
2012,06,25,05,45,8.80
2012,06,25,05,46,8.80
2012,06,25,05,48,8.80
2012,06,25,05,49,8.80
2012,06,25,05,50,8.80
2012,06,25,05,52,8.70
2012,06,25,05,53,8.70
2012,06,25,05,54,8.70
2012,06,25,05,55,8.70
2012,06,25,05,56,8.70
2012,06,25,05,57,8.70
2012,06,25,05,58,8.70
2012,06,25,05,59,8.70
2012,06,25,06,00,8.70
2012,06,25,06,01,8.60
2012,06,25,06,03,8.60
2012,06,25,06,04,8.60
2012,06,25,06,05,8.60
2012,06,25,06,06,8.60
2012,06,25,06,07,8.60
2012,06,25,06,09,8.60
2012,06,25,06,10,8.70
2012,06,25,06,11,8.70
2012,06,25,06,13,8.70
2012,06,25,06,14,8.70
2012,06,25,06,15,8.70
2012,06,25,06,16,8.80
2012,06,25,06,17,8.80
2012,06,25,06,18,8.80
2012,06,25,06,19,8.80
2012,06,25,06,20,8.80
2012,06,25,06,21,8.90
2012,06,25,06,22,8.90
2012,06,25,06,23,8.90
2012,06,25,06,24,8.90
2012,06,25,06,25,9.00
2012,06,25,06,27,9.10
2012,06,25,06,28,9.20
2012,06,25,06,29,9.20
2012,06,25,06,30,9.30
2012,06,25,06,31,9.40
2012,06,25,06,32,9.40
2012,06,25,06,33,9.50
2012,06,25,06,34,9.60
2012,06,25,06,36,9.70
2012,06,25,06,37,9.80
2012,06,25,06,38,9.80
2012,06,25,06,39,9.90
2012,06,25,06,41,9.90
2012,06,25,06,42,10.10
2012,06,25,06,43,10.10
2012,06,25,06,44,10.20
2012,06,25,06,45,10.20
2012,06,25,06,46,10.20
2012,06,25,06,47,10.30
2012,06,25,06,48,10.40
2012,06,25,06,50,10.50
2012,06,25,06,51,10.60
2012,06,25,06,52,10.70
2012,06,25,06,53,10.70
2012,06,25,06,54,10.80
2012,06,25,06,55,10.80
2012,06,25,06,56,10.80
2012,06,25,06,57,10.90
2012,06,25,06,59,10.90
2012,06,25,07,00,11.00
2012,06,25,07,01,11.10
2012,06,25,07,02,11.10
2012,06,25,07,03,11.20
2012,06,25,07,04,11.20
2012,06,25,07,05,11.20
2012,06,25,07,06,11.30
2012,06,25,07,07,11.40
2012,06,25,07,08,11.40
2012,06,25,07,09,11.60
2012,06,25,07,10,11.70
2012,06,25,07,11,11.80
2012,06,25,07,12,11.90
2012,06,25,07,13,11.90
2012,06,25,07,14,12.00
2012,06,25,07,15,12.10
2012,06,25,07,16,12.20
2012,06,25,07,18,12.30
2012,06,25,07,19,12.40
2012,06,25,07,20,12.40
2012,06,25,07,21,12.50
2012,06,25,07,23,12.60
2012,06,25,07,24,12.70
2012,06,25,07,25,12.80
2012,06,25,07,26,12.90
2012,06,25,07,27,12.90
2012,06,25,07,29,13.00
2012,06,25,07,30,13.10
2012,06,25,07,31,13.20
2012,06,25,07,32,13.20
2012,06,25,07,33,13.20
2012,06,25,07,35,13.30
2012,06,25,07,36,13.30
2012,06,25,07,37,13.30
2012,06,25,07,38,13.30
2012,06,25,07,39,13.30
2012,06,25,07,41,13.30
2012,06,25,07,42,13.30
2012,06,25,07,43,13.30
2012,06,25,07,45,13.30
2012,06,25,07,46,13.30
2012,06,25,07,47,13.30
2012,06,25,07,49,13.30
2012,06,25,07,50,13.40
2012,06,25,07,51,13.40
2012,06,25,07,52,13.40
2012,06,25,07,53,13.40
2012,06,25,07,54,13.40
2012,06,25,07,55,13.40
2012,06,25,07,57,13.50
2012,06,25,07,58,13.50
2012,06,25,07,59,13.60
2012,06,25,08,00,13.60
2012,06,25,08,02,13.50
2012,06,25,08,03,13.60
2012,06,25,08,04,13.60
2012,06,25,08,06,13.60
2012,06,25,08,07,13.60
2012,06,25,08,08,13.70
2012,06,25,08,09,13.70
2012,06,25,08,10,13.70
2012,06,25,08,12,13.70
2012,06,25,08,13,13.60
2012,06,25,08,14,13.60
2012,06,25,08,15,13.60
2012,06,25,08,17,13.60
2012,06,25,08,18,13.50
2012,06,25,08,19,13.40
2012,06,25,08,20,13.40
2012,06,25,08,21,13.40
2012,06,25,08,23,13.40
2012,06,25,08,24,13.50
2012,06,25,08,25,13.60
2012,06,25,08,26,13.60
2012,06,25,08,28,13.60
2012,06,25,08,29,13.60
2012,06,25,08,30,13.60
2012,06,25,08,31,13.70
2012,06,25,08,32,13.70
2012,06,25,08,34,13.80
2012,06,25,08,35,13.80
2012,06,25,08,36,13.80
2012,06,25,08,37,13.80
2012,06,25,08,39,13.90
2012,06,25,08,40,13.90
2012,06,25,08,41,13.90
2012,06,25,08,42,13.90
2012,06,25,08,43,14.00
2012,06,25,08,45,14.00
2012,06,25,08,46,14.10
2012,06,25,08,47,14.10
2012,06,25,08,48,14.10
2012,06,25,08,50,14.10
2012,06,25,08,51,14.20
2012,06,25,08,52,14.20
2012,06,25,08,53,14.20
2012,06,25,08,54,14.20
2012,06,25,08,56,14.20
2012,06,25,08,57,14.30
2012,06,25,08,58,14.30
2012,06,25,08,59,14.30
2012,06,25,09,00,14.30
2012,06,25,09,02,14.30
2012,06,25,09,03,14.40
2012,06,25,09,04,14.40
2012,06,25,09,05,14.40
2012,06,25,09,06,14.40
2012,06,25,09,08,14.50
2012,06,25,09,09,14.50
2012,06,25,09,10,14.50
2012,06,25,09,11,14.50
2012,06,25,09,12,14.50
2012,06,25,09,14,14.50
2012,06,25,09,15,14.40
2012,06,25,09,16,14.40
2012,06,25,09,17,14.30
2012,06,25,09,18,14.30
2012,06,25,09,20,14.30
2012,06,25,09,21,14.30
2012,06,25,09,22,14.30
2012,06,25,09,23,14.40
2012,06,25,09,24,14.30
2012,06,25,09,26,14.30
2012,06,25,09,27,14.30
2012,06,25,09,28,14.30
2012,06,25,09,30,14.30
2012,06,25,09,31,14.30
2012,06,25,09,32,14.30
2012,06,25,09,33,14.30
2012,06,25,09,34,14.30
2012,06,25,09,35,14.30
2012,06,25,09,36,14.30
2012,06,25,09,37,14.40
2012,06,25,09,38,14.40
2012,06,25,09,39,14.40
2012,06,25,09,40,14.40
2012,06,25,09,41,14.40
2012,06,25,09,42,14.40
2012,06,25,09,43,14.40
2012,06,25,09,44,14.40
2012,06,25,09,46,14.40
2012,06,25,09,47,14.40
2012,06,25,09,48,14.40
2012,06,25,09,50,14.30
2012,06,25,09,51,14.40
2012,06,25,09,52,14.40
2012,06,25,09,53,14.40
2012,06,25,09,54,14.40
2012,06,25,09,55,14.40
2012,06,25,09,56,14.40
2012,06,25,09,57,14.40
2012,06,25,09,58,14.40
2012,06,25,09,59,14.40
2012,06,25,10,00,14.40
2012,06,25,10,01,14.50
2012,06,25,10,02,14.60
2012,06,25,10,04,14.60
2012,06,25,10,05,14.70
2012,06,25,10,06,14.70
2012,06,25,10,07,14.70
2012,06,25,10,08,14.70
2012,06,25,10,09,14.70
2012,06,25,10,10,14.70
2012,06,25,10,11,14.70
2012,06,25,10,12,14.80
2012,06,25,10,13,14.80
2012,06,25,10,14,14.70
2012,06,25,10,15,14.70
2012,06,25,10,16,14.70
2012,06,25,10,17,14.70
2012,06,25,10,18,14.70
2012,06,25,10,19,14.70
2012,06,25,10,20,14.60
2012,06,25,10,21,14.60
2012,06,25,10,22,14.60
2012,06,25,10,23,14.60
2012,06,25,10,24,14.60
2012,06,25,10,25,14.70
2012,06,25,10,26,14.70
2012,06,25,10,27,14.70
2012,06,25,10,29,14.70
2012,06,25,10,30,14.80
2012,06,25,10,31,14.80
2012,06,25,10,32,14.90
2012,06,25,10,34,14.90
2012,06,25,10,35,15.00
2012,06,25,10,36,15.10
2012,06,25,10,37,15.10
2012,06,25,10,39,15.10
2012,06,25,10,40,15.10
2012,06,25,10,41,15.10
2012,06,25,10,42,15.10
2012,06,25,10,44,15.20
2012,06,25,10,45,15.20
2012,06,25,10,46,15.20
2012,06,25,10,48,15.20
2012,06,25,10,49,15.10
2012,06,25,10,50,15.10
2012,06,25,10,51,15.10
2012,06,25,10,53,15.10
2012,06,25,10,54,15.20
2012,06,25,10,55,15.20
2012,06,25,10,56,15.30
2012,06,25,10,58,15.30
2012,06,25,10,59,15.30
2012,06,25,11,00,15.40
2012,06,25,11,02,15.30
2012,06,25,11,03,15.30
2012,06,25,11,04,15.30
2012,06,25,11,05,15.30
2012,06,25,11,07,15.40
2012,06,25,11,08,15.60
2012,06,25,11,09,15.70
2012,06,25,11,10,15.80
2012,06,25,11,11,15.80
2012,06,25,11,12,15.80
2012,06,25,11,13,15.80
2012,06,25,11,14,15.90
2012,06,25,11,15,15.90
2012,06,25,11,17,16.00
2012,06,25,11,18,16.10
2012,06,25,11,19,16.20
2012,06,25,11,20,16.20
2012,06,25,11,22,16.30
2012,06,25,11,23,16.30
2012,06,25,11,24,16.40
2012,06,25,11,25,16.40
2012,06,25,11,26,16.60
2012,06,25,11,28,16.60
2012,06,25,11,29,16.70
2012,06,25,11,30,16.70
2012,06,25,11,32,16.80
2012,06,25,11,33,16.80
2012,06,25,11,34,16.90
2012,06,25,11,35,16.90
2012,06,25,11,36,17.00
2012,06,25,11,37,17.10
2012,06,25,11,38,17.10
2012,06,25,11,39,17.10
2012,06,25,11,40,17.00
2012,06,25,11,41,16.90
2012,06,25,11,42,16.90
2012,06,25,11,43,16.80
2012,06,25,11,45,16.80
2012,06,25,11,46,16.80
2012,06,25,11,47,16.80
2012,06,25,11,49,16.80
2012,06,25,11,50,16.90
2012,06,25,11,51,17.10
2012,06,25,11,52,17.10
2012,06,25,11,54,17.10
2012,06,25,11,55,17.20
2012,06,25,11,56,17.20
2012,06,25,11,57,17.30
2012,06,25,11,59,17.30
2012,06,25,12,00,17.30
2012,06,25,12,01,17.30
2012,06,25,12,02,17.30
2012,06,25,12,03,17.30
2012,06,25,12,05,17.30
2012,06,25,12,06,17.30
2012,06,25,12,07,17.30
2012,06,25,12,08,17.30
2012,06,25,12,09,17.30
2012,06,25,12,10,17.30
2012,06,25,12,11,17.30
2012,06,25,12,12,17.30
2012,06,25,12,13,17.40
2012,06,25,12,15,17.50
2012,06,25,12,16,17.60
2012,06,25,12,17,17.60
2012,06,25,12,18,17.70
2012,06,25,12,20,17.60
2012,06,25,12,21,17.60
2012,06,25,12,22,17.60
2012,06,25,12,23,17.60
2012,06,25,12,25,17.60
2012,06,25,12,26,17.70
2012,06,25,12,27,17.70
2012,06,25,12,28,17.60
2012,06,25,12,29,17.50
2012,06,25,12,30,17.40
2012,06,25,12,31,17.30
2012,06,25,12,32,17.10
2012,06,25,12,33,17.00
2012,06,25,12,34,16.90
2012,06,25,12,35,16.80
2012,06,25,12,36,16.80
2012,06,25,12,37,16.90
2012,06,25,12,39,16.80
2012,06,25,12,40,16.70
2012,06,25,12,41,16.70
2012,06,25,12,42,16.70
2012,06,25,12,43,16.60
2012,06,25,12,44,16.60
2012,06,25,12,45,16.60
2012,06,25,12,46,16.50
2012,06,25,12,47,16.40
2012,06,25,12,49,16.40
2012,06,25,12,50,16.30
2012,06,25,12,51,16.30
2012,06,25,12,52,16.20
2012,06,25,12,53,16.10
2012,06,25,12,54,16.10
2012,06,25,12,55,16.10
2012,06,25,12,56,16.00
2012,06,25,12,57,15.90
2012,06,25,12,59,15.90
2012,06,25,13,00,15.90
2012,06,25,13,01,15.90
2012,06,25,13,02,15.90
2012,06,25,13,04,15.80
2012,06,25,13,05,15.80
2012,06,25,13,06,15.80
2012,06,25,13,07,15.80
2012,06,25,13,09,15.80
2012,06,25,13,10,15.80
2012,06,25,13,11,15.80
2012,06,25,13,12,15.80
2012,06,25,13,13,15.80
2012,06,25,13,15,15.80
2012,06,25,13,16,15.80
2012,06,25,13,18,15.80
2012,06,25,13,19,15.80
2012,06,25,13,20,15.80
2012,06,25,13,21,15.80
2012,06,25,13,22,15.80
2012,06,25,13,23,15.90
2012,06,25,13,24,15.90
2012,06,25,13,25,15.90
2012,06,25,13,27,15.90
2012,06,25,13,28,15.90
2012,06,25,13,29,15.90
2012,06,25,13,30,15.90
2012,06,25,13,31,15.90
2012,06,25,13,32,15.80
2012,06,25,13,34,15.70
2012,06,25,13,35,15.70
2012,06,25,13,36,15.60
2012,06,25,13,37,15.40
2012,06,25,13,39,15.40
2012,06,25,13,40,15.40
2012,06,25,13,41,15.30
2012,06,25,13,42,15.30
2012,06,25,13,44,15.30
2012,06,25,13,45,15.30
2012,06,25,13,46,15.20
2012,06,25,13,47,15.10
2012,06,25,13,49,15.10
2012,06,25,13,50,15.10
2012,06,25,13,51,15.00
2012,06,25,13,52,14.90
2012,06,25,13,53,15.00
2012,06,25,13,55,15.10
2012,06,25,13,56,15.20
2012,06,25,13,57,15.20
2012,06,25,13,58,15.30
2012,06,25,14,00,15.50
2012,06,25,14,01,15.70
2012,06,25,14,02,15.80
2012,06,25,14,03,15.90
2012,06,25,14,05,15.90
2012,06,25,14,06,16.00
2012,06,25,14,07,16.10
2012,06,25,14,08,16.20
2012,06,25,14,10,16.20
2012,06,25,14,11,16.20
2012,06,25,14,12,16.20
2012,06,25,14,13,16.20
2012,06,25,14,14,16.10
2012,06,25,14,15,16.20
2012,06,25,14,16,16.20
2012,06,25,14,17,16.20
2012,06,25,14,18,16.20
2012,06,25,14,20,16.30
2012,06,25,14,21,16.40
2012,06,25,14,23,16.60
2012,06,25,14,24,16.70
2012,06,25,14,25,16.70
2012,06,25,14,26,16.70
2012,06,25,14,28,16.70
2012,06,25,14,29,16.80
2012,06,25,14,30,16.80
2012,06,25,14,31,16.80
2012,06,25,14,32,16.80
2012,06,25,14,33,16.80
2012,06,25,14,34,16.90
2012,06,25,14,35,17.00
2012,06,25,14,36,17.10
2012,06,25,14,38,17.30
2012,06,25,14,39,17.40
2012,06,25,14,40,17.60
2012,06,25,14,41,17.60
2012,06,25,14,43,17.60
2012,06,25,14,44,17.60
2012,06,25,14,45,17.60
2012,06,25,14,47,17.60
2012,06,25,14,48,17.60
2012,06,25,14,49,17.60
2012,06,25,14,50,17.60
2012,06,25,14,52,17.70
2012,06,25,14,53,17.70
2012,06,25,14,54,17.60
2012,06,25,14,55,17.70
2012,06,25,14,56,17.70
2012,06,25,14,57,17.80
2012,06,25,14,58,17.90
2012,06,25,14,59,17.90
2012,06,25,15,00,18.10
2012,06,25,15,02,18.10
2012,06,25,15,03,18.20
2012,06,25,15,04,18.30
2012,06,25,15,05,18.40
2012,06,25,15,06,18.50
2012,06,25,15,07,18.60
2012,06,25,15,08,18.60
2012,06,25,15,09,18.70
2012,06,25,15,10,18.80
2012,06,25,15,11,18.90
2012,06,25,15,12,18.90
2012,06,25,15,13,19.10
2012,06,25,15,14,19.10
2012,06,25,15,15,19.10
2012,06,25,15,17,19.00
2012,06,25,15,18,18.90
2012,06,25,15,19,18.90
2012,06,25,15,20,18.90
2012,06,25,15,21,19.00
2012,06,25,15,22,19.10
2012,06,25,15,23,19.20
2012,06,25,15,24,19.20
2012,06,25,15,25,19.40
2012,06,25,15,26,19.40
2012,06,25,15,28,19.40
2012,06,25,15,29,19.30
2012,06,25,15,30,19.30
2012,06,25,15,31,19.30
2012,06,25,15,33,19.30
2012,06,25,15,34,19.20
2012,06,25,15,35,19.10
2012,06,25,15,36,19.00
2012,06,25,15,38,19.00
2012,06,25,15,39,19.00
2012,06,25,15,40,18.90
2012,06,25,15,41,19.00
2012,06,25,15,42,19.10
2012,06,25,15,44,19.00
2012,06,25,15,45,19.10
2012,06,25,15,46,19.00
2012,06,25,15,47,18.90
2012,06,25,15,48,18.80
2012,06,25,15,50,18.70
2012,06,25,15,51,18.60
2012,06,25,15,52,18.30
2012,06,25,15,53,18.20
2012,06,25,15,54,18.10
2012,06,25,15,56,18.10
2012,06,25,15,57,18.20
2012,06,25,15,58,18.20
2012,06,25,16,00,18.30
2012,06,25,16,01,18.30
2012,06,25,16,02,18.40
2012,06,25,16,03,18.60
2012,06,25,16,04,18.70
2012,06,25,16,06,18.80
2012,06,25,16,07,18.90
2012,06,25,16,08,18.90
2012,06,25,16,09,18.70
2012,06,25,16,11,18.70
2012,06,25,16,12,18.70
2012,06,25,16,13,18.60
2012,06,25,16,14,18.60
2012,06,25,16,15,18.50
2012,06,25,16,16,18.40
2012,06,25,16,17,18.40
2012,06,25,16,18,18.40
2012,06,25,16,20,18.30
2012,06,25,16,21,18.20
2012,06,25,16,22,18.20
2012,06,25,16,23,18.10
2012,06,25,16,25,18.00
2012,06,25,16,26,17.90
2012,06,25,16,27,17.80
2012,06,25,16,28,17.80
2012,06,25,16,30,17.70
2012,06,25,16,31,17.60
2012,06,25,16,32,17.40
2012,06,25,16,33,17.40
2012,06,25,16,35,17.30
2012,06,25,16,36,17.20
2012,06,25,16,37,17.20
2012,06,25,16,38,17.20
2012,06,25,16,39,17.20
2012,06,25,16,41,17.20
2012,06,25,16,42,17.10
2012,06,25,16,43,17.10
2012,06,25,16,44,16.90
2012,06,25,16,46,16.90
2012,06,25,16,47,16.70
2012,06,25,16,48,16.60
2012,06,25,16,49,16.60
2012,06,25,16,51,16.50
2012,06,25,16,52,16.40
2012,06,25,16,53,16.30
2012,06,25,16,54,16.30
2012,06,25,16,55,16.30
2012,06,25,16,56,16.30
2012,06,25,16,57,16.30
2012,06,25,16,58,16.20
2012,06,25,16,59,16.20
2012,06,25,17,01,16.20
2012,06,25,17,02,16.10
2012,06,25,17,03,16.10
2012,06,25,17,04,16.10
2012,06,25,17,06,16.10
2012,06,25,17,07,16.10
2012,06,25,17,08,16.10
2012,06,25,17,09,16.00
2012,06,25,17,11,15.90
2012,06,25,17,12,15.90
2012,06,25,17,13,15.80
2012,06,25,17,14,15.80
2012,06,25,17,15,15.80
2012,06,25,17,17,15.60
2012,06,25,17,18,15.40
2012,06,25,17,19,15.20
2012,06,25,17,20,15.10
2012,06,25,17,21,15.10
2012,06,25,17,23,14.90
2012,06,25,17,24,14.80
2012,06,25,17,25,14.80
2012,06,25,17,26,14.70
2012,06,25,17,28,14.60
2012,06,25,17,29,14.50
2012,06,25,17,30,14.40
2012,06,25,17,31,14.30
2012,06,25,17,32,14.30
2012,06,25,17,33,14.30
2012,06,25,17,35,14.20
2012,06,25,17,36,14.10
2012,06,25,17,37,14.10
2012,06,25,17,38,14.10
2012,06,25,17,39,14.00
2012,06,25,17,41,13.90
2012,06,25,17,42,13.80
2012,06,25,17,43,13.80
2012,06,25,17,45,13.70
2012,06,25,17,46,13.70
2012,06,25,17,47,13.70
2012,06,25,17,48,13.60
2012,06,25,17,49,13.60
2012,06,25,17,51,13.60
2012,06,25,17,52,13.50
2012,06,25,17,53,13.40
2012,06,25,17,54,13.40
2012,06,25,17,56,13.40
2012,06,25,17,57,13.30
2012,06,25,17,58,13.20
2012,06,25,17,59,13.20
2012,06,25,18,01,13.10
2012,06,25,18,02,13.00
2012,06,25,18,03,12.90
2012,06,25,18,04,12.90
2012,06,25,18,06,12.90
2012,06,25,18,07,12.80
2012,06,25,18,08,12.80
2012,06,25,18,09,12.80
2012,06,25,18,11,12.80
2012,06,25,18,12,12.80
2012,06,25,18,13,12.80
2012,06,25,18,14,12.80
2012,06,25,18,16,12.70
2012,06,25,18,17,12.70
2012,06,25,18,18,12.60
2012,06,25,18,19,12.60
2012,06,25,18,20,12.60
2012,06,25,18,21,12.60
2012,06,25,18,22,12.60
2012,06,25,18,23,12.60
2012,06,25,18,24,12.60
2012,06,25,18,26,12.60
2012,06,25,18,27,12.60
2012,06,25,18,28,12.60
2012,06,25,18,29,12.70
2012,06,25,18,31,12.70
2012,06,25,18,32,12.70
2012,06,25,18,33,12.70
2012,06,25,18,34,12.70
2012,06,25,18,35,12.70
2012,06,25,18,36,12.70
2012,06,25,18,37,12.80
2012,06,25,18,38,12.80
2012,06,25,18,40,12.80
2012,06,25,18,41,12.80
2012,06,25,18,42,12.80
2012,06,25,18,43,12.90
2012,06,25,18,44,12.90
2012,06,25,18,45,13.00
2012,06,25,18,46,13.10
2012,06,25,18,47,13.10
2012,06,25,18,48,13.20
2012,06,25,18,50,13.30
2012,06,25,18,51,13.30
2012,06,25,18,52,13.40
2012,06,25,18,53,13.40
2012,06,25,18,55,13.50
2012,06,25,18,56,13.60
2012,06,25,18,57,13.60
2012,06,25,18,58,13.70
2012,06,25,18,59,13.70
2012,06,25,19,00,13.80
2012,06,25,19,01,13.90
2012,06,25,19,02,13.90
2012,06,25,19,03,14.00
2012,06,25,19,04,14.10
2012,06,25,19,05,14.10
2012,06,25,19,06,14.20
2012,06,25,19,08,14.30
2012,06,25,19,09,14.30
2012,06,25,19,10,14.40
2012,06,25,19,11,14.40
2012,06,25,19,12,14.40
2012,06,25,19,13,14.40
2012,06,25,19,14,14.40
2012,06,25,19,15,14.40
2012,06,25,19,16,14.40
2012,06,25,19,17,14.50
2012,06,25,19,18,14.50
2012,06,25,19,19,14.50
2012,06,25,19,20,14.50
2012,06,25,19,21,14.50
2012,06,25,19,22,14.40
2012,06,25,19,23,14.40
2012,06,25,19,24,14.40
2012,06,25,19,25,14.40
2012,06,25,19,26,14.40
2012,06,25,19,28,14.40
2012,06,25,19,29,14.40
2012,06,25,19,30,14.40
2012,06,25,19,31,14.40
2012,06,25,19,32,14.40
2012,06,25,19,34,14.40
2012,06,25,19,35,14.40
2012,06,25,19,36,14.40
2012,06,25,19,37,14.40
2012,06,25,19,39,14.40
2012,06,25,19,40,14.40
2012,06,25,19,41,14.40
2012,06,25,19,42,14.40
2012,06,25,19,44,14.40
2012,06,25,19,45,14.40
2012,06,25,19,46,14.30
2012,06,25,19,47,14.30
2012,06,25,19,49,14.30
2012,06,25,19,50,14.30
2012,06,25,19,51,14.30
2012,06,25,19,52,14.30
2012,06,25,19,53,14.30
2012,06,25,19,54,14.30
2012,06,25,19,55,14.30
2012,06,25,19,56,14.30
2012,06,25,19,57,14.30
2012,06,25,19,58,14.30
2012,06,25,19,59,14.30
2012,06,25,20,00,14.30
2012,06,25,20,01,14.30
2012,06,25,20,02,14.30
2012,06,25,20,03,14.30
2012,06,25,20,04,14.30
2012,06,25,20,05,14.30
2012,06,25,20,06,14.30
2012,06,25,20,07,14.30
2012,06,25,20,08,14.30
2012,06,25,20,09,14.30
2012,06,25,20,10,14.30
2012,06,25,20,11,14.30
2012,06,25,20,12,14.30
2012,06,25,20,13,14.30
2012,06,25,20,15,14.30
2012,06,25,20,16,14.30
2012,06,25,20,17,14.30
2012,06,25,20,18,14.30
2012,06,25,20,19,14.40
2012,06,25,20,20,14.40
2012,06,25,20,21,14.40
2012,06,25,20,22,14.40
2012,06,25,20,23,14.40
2012,06,25,20,24,14.40
2012,06,25,20,25,14.40
2012,06,25,20,26,14.40
2012,06,25,20,27,14.40
2012,06,25,20,28,14.40
2012,06,25,20,29,14.40
2012,06,25,20,30,14.40
2012,06,25,20,32,14.40
2012,06,25,20,33,14.40
2012,06,25,20,34,14.40
2012,06,25,20,36,14.40
2012,06,25,20,37,14.40
2012,06,25,20,38,14.40
2012,06,25,20,40,14.40